Bill Jr — WCO6976 — position and weather

sailwx.info

Track history (hours):
 
Tides and Currents Weather Stations Pressure Air Temp Water Temp Dewpoint Dewpoint Depression Visibility Wind Speed Wind Dir Waves Ship Positions

Bill Jr

Owner: DAWSON VESSELS INC, MOBILE, AL. More information available from US FCC via Universal Licensing System and Coast Guard Vessel Documentation Center.

Last reported at 2016-May-21 07:18 UTC. Time now 2016-May-29 00:04 UTC.
Position N 29°57' W 090°10'.

Length 21 m.

MMSI: 366976750.

Date/timePositionNaut miles runAvg speedWind from/ knotsBaromVisibWave heightAir tempDewpointWater temp
2016-May-21 07:18N 29°57' W 090°10'2 2.4
2016-May-21 06:33N 29°56' W 090°08'4 3.8
2016-May-21 05:33N 29°55' W 090°04'3 3.3
2016-May-21 04:33N 29°57' W 090°01'3 1.9
2016-May-21 03:13N 29°55' W 089°58'0 0.1
2016-May-21 02:33N 29°55' W 089°58'3 2.9
2016-May-21 01:32N 29°52' W 090°00'4 4.3
2016-May-21 00:33N 29°50' W 090°04'5 4.6
2016-May-20 23:33N 29°54' W 090°05'0 0.0
2016-May-20 22:33N 29°54' W 090°05'0 0.0
2016-May-20 21:33N 29°54' W 090°05'0 0.0
2016-May-20 20:33N 29°54' W 090°05'0 0.0
2016-May-20 19:28N 29°54' W 090°05'0 0.0
2016-May-20 18:33N 29°54' W 090°05'0 0.0
2016-May-20 17:33N 29°54' W 090°05'0 0.0
2016-May-20 15:31N 29°54' W 090°05'0 0.0
2016-May-20 14:33N 29°54' W 090°05'0 0.0
2016-May-20 13:33N 29°54' W 090°05'0 0.0
2016-May-20 12:29N 29°54' W 090°05'0 0.0
2016-May-20 11:33N 29°54' W 090°05'0 0.0
2016-May-20 10:33N 29°54' W 090°05'0 0.0
2016-May-20 09:34N 29°54' W 090°05'0 0.0
2016-May-20 08:33N 29°54' W 090°05'0 0.0
2016-May-20 07:33N 29°54' W 090°05'0 0.0
2016-May-20 06:34N 29°54' W 090°05'0 0.0
2016-May-20 05:33N 29°54' W 090°05'0 0.0
2016-May-20 03:33N 29°54' W 090°05'0 0.0
2016-May-20 02:33N 29°54' W 090°05'0 0.0
2016-May-20 01:33N 29°54' W 090°05'0 0.2
2016-May-20 00:33N 29°54' W 090°05'0 0.1
2016-May-19 23:07N 29°54' W 090°05'0 0.0
2016-May-19 22:33N 29°54' W 090°05'0 0.0
2016-May-19 21:33N 29°54' W 090°05'0 0.0
2016-May-19 20:33N 29°54' W 090°05'0 0.0
2016-May-19 19:33N 29°54' W 090°05'0 0.0
2016-May-19 18:33N 29°54' W 090°05'0 0.0
2016-May-19 17:33N 29°54' W 090°05'0 0.0
2016-May-19 16:33N 29°54' W 090°05'0 0.0
2016-May-19 15:33N 29°54' W 090°05'0 0.0
2016-May-19 14:33N 29°54' W 090°05'0 0.0
2016-May-19 13:33N 29°54' W 090°05'0 0.0
2016-May-19 12:33N 29°54' W 090°05'0 0.0
2016-May-19 11:26N 29°54' W 090°05'0 0.0
2016-May-19 10:33N 29°54' W 090°05'0 0.0
2016-May-19 09:33N 29°54' W 090°05'0 0.0
2016-May-19 08:33N 29°54' W 090°05'0 0.0
2016-May-19 07:31N 29°54' W 090°05'0 0.0
2016-May-19 06:20N 29°54' W 090°05'0 0.0
2016-May-19 01:08N 29°54' W 090°05'0 0.0
2016-May-18 23:05N 29°54' W 090°05'0 0.2
2016-May-18 22:33N 29°54' W 090°05'0 0.1
2016-May-18 21:07N 29°54' W 090°05'0 0.0
2016-May-18 20:33N 29°54' W 090°05'0 0.0
2016-May-18 19:33N 29°54' W 090°05'0 0.0
2016-May-18 18:33N 29°54' W 090°05'0 0.0
2016-May-18 17:33N 29°54' W 090°05'0 0.0
2016-May-18 16:32N 29°54' W 090°05'0 0.0
2016-May-18 15:33N 29°54' W 090°05'0 0.0
2016-May-18 14:33N 29°54' W 090°05'0 0.0
2016-May-18 13:23N 29°54' W 090°05'0 0.0
2016-May-18 12:33N 29°54' W 090°05'0 0.0
2016-May-18 11:32N 29°54' W 090°05'0 0.0
2016-May-18 10:32N 29°54' W 090°05'0 0.0
2016-May-18 09:33N 29°54' W 090°05'0 0.0
2016-May-18 08:33N 29°54' W 090°05'0 0.0
2016-May-18 06:32N 29°54' W 090°05'0 0.0
2016-May-18 05:33N 29°54' W 090°05'0 0.0
2016-May-18 04:17N 29°54' W 090°05'0 0.0
2016-May-18 03:33N 29°54' W 090°05'0 0.0
2016-May-18 02:33N 29°54' W 090°05'0 0.0
2016-May-18 00:10N 29°54' W 090°05'0 0.0
2016-May-17 23:33N 29°54' W 090°05'0 0.0
2016-May-17 22:33N 29°54' W 090°05'0 0.0
2016-May-17 21:33N 29°54' W 090°05'0 0.0
2016-May-17 20:33N 29°54' W 090°05'0 0.0
2016-May-17 19:33N 29°54' W 090°05'0 0.0
2016-May-17 18:33N 29°54' W 090°05'0 0.0
2016-May-17 17:33N 29°54' W 090°05'0 0.0
2016-May-17 16:33N 29°54' W 090°05'0 0.0
2016-May-17 15:33N 29°54' W 090°05'0 0.0
2016-May-17 14:33N 29°54' W 090°05'0 0.0
2016-May-17 13:33N 29°54' W 090°05'0 0.0
2016-May-17 12:33N 29°54' W 090°05'0 0.0
2016-May-17 11:33N 29°54' W 090°05'0 0.0
2016-May-17 10:33N 29°54' W 090°05'5 4.7
2016-May-17 09:33N 29°50' W 090°03'7 6.6
2016-May-17 08:33N 29°55' W 089°58'3 2.7
2016-May-17 07:33N 29°57' W 090°01'7 6.8
2016-May-17 06:33N 29°56' W 090°08'  
2016-May-14 11:32N 30°03' W 090°34'1 0.8
2016-May-14 10:31N 30°03' W 090°33'  
Track history (hours):
 
Tides and Currents Weather Stations Pressure Air Temp Water Temp Dewpoint Dewpoint Depression Visibility Wind Speed Wind Dir Waves Ship Positions

Bill Jr

Owner: DAWSON VESSELS INC, MOBILE, AL. More information available from US FCC via Universal Licensing System and Coast Guard Vessel Documentation Center.

Last reported at 2016-May-21 07:18 UTC. Time now 2016-May-29 00:04 UTC.
Position N 29°57' W 090°10'.

Length 21 m.

MMSI: 366976750.

Date/timePositionNaut miles runAvg speedWind from/ knotsBaromVisibWave heightAir tempDewpointWater temp
2016-May-21 07:18N 29°57' W 090°10'2 2.4
2016-May-21 06:33N 29°56' W 090°08'4 3.8
2016-May-21 05:33N 29°55' W 090°04'3 3.3
2016-May-21 04:33N 29°57' W 090°01'3 1.9
2016-May-21 03:13N 29°55' W 089°58'0 0.1
2016-May-21 02:33N 29°55' W 089°58'3 2.9
2016-May-21 01:32N 29°52' W 090°00'4 4.3
2016-May-21 00:33N 29°50' W 090°04'5 4.6
2016-May-20 23:33N 29°54' W 090°05'0 0.0
2016-May-20 22:33N 29°54' W 090°05'0 0.0
2016-May-20 21:33N 29°54' W 090°05'0 0.0
2016-May-20 20:33N 29°54' W 090°05'0 0.0
2016-May-20 19:28N 29°54' W 090°05'0 0.0
2016-May-20 18:33N 29°54' W 090°05'0 0.0
2016-May-20 17:33N 29°54' W 090°05'0 0.0
2016-May-20 15:31N 29°54' W 090°05'0 0.0
2016-May-20 14:33N 29°54' W 090°05'0 0.0
2016-May-20 13:33N 29°54' W 090°05'0 0.0
2016-May-20 12:29N 29°54' W 090°05'0 0.0
2016-May-20 11:33N 29°54' W 090°05'0 0.0
2016-May-20 10:33N 29°54' W 090°05'0 0.0
2016-May-20 09:34N 29°54' W 090°05'0 0.0
2016-May-20 08:33N 29°54' W 090°05'0 0.0
2016-May-20 07:33N 29°54' W 090°05'0 0.0
2016-May-20 06:34N 29°54' W 090°05'0 0.0
2016-May-20 05:33N 29°54' W 090°05'0 0.0
2016-May-20 03:33N 29°54' W 090°05'0 0.0
2016-May-20 02:33N 29°54' W 090°05'0 0.0
2016-May-20 01:33N 29°54' W 090°05'0 0.2
2016-May-20 00:33N 29°54' W 090°05'0 0.1
2016-May-19 23:07N 29°54' W 090°05'0 0.0
2016-May-19 22:33N 29°54' W 090°05'0 0.0
2016-May-19 21:33N 29°54' W 090°05'0 0.0
2016-May-19 20:33N 29°54' W 090°05'0 0.0
2016-May-19 19:33N 29°54' W 090°05'0 0.0
2016-May-19 18:33N 29°54' W 090°05'0 0.0
2016-May-19 17:33N 29°54' W 090°05'0 0.0
2016-May-19 16:33N 29°54' W 090°05'0 0.0
2016-May-19 15:33N 29°54' W 090°05'0 0.0
2016-May-19 14:33N 29°54' W 090°05'0 0.0
2016-May-19 13:33N 29°54' W 090°05'0 0.0
2016-May-19 12:33N 29°54' W 090°05'0 0.0
2016-May-19 11:26N 29°54' W 090°05'0 0.0
2016-May-19 10:33N 29°54' W 090°05'0 0.0
2016-May-19 09:33N 29°54' W 090°05'0 0.0
2016-May-19 08:33N 29°54' W 090°05'0 0.0
2016-May-19 07:31N 29°54' W 090°05'0 0.0
2016-May-19 06:20N 29°54' W 090°05'0 0.0
2016-May-19 01:08N 29°54' W 090°05'0 0.0
2016-May-18 23:05N 29°54' W 090°05'0 0.2
2016-May-18 22:33N 29°54' W 090°05'0 0.1
2016-May-18 21:07N 29°54' W 090°05'0 0.0
2016-May-18 20:33N 29°54' W 090°05'0 0.0
2016-May-18 19:33N 29°54' W 090°05'0 0.0
2016-May-18 18:33N 29°54' W 090°05'0 0.0
2016-May-18 17:33N 29°54' W 090°05'0 0.0
2016-May-18 16:32N 29°54' W 090°05'0 0.0
2016-May-18 15:33N 29°54' W 090°05'0 0.0
2016-May-18 14:33N 29°54' W 090°05'0 0.0
2016-May-18 13:23N 29°54' W 090°05'0 0.0
2016-May-18 12:33N 29°54' W 090°05'0 0.0
2016-May-18 11:32N 29°54' W 090°05'0 0.0
2016-May-18 10:32N 29°54' W 090°05'0 0.0
2016-May-18 09:33N 29°54' W 090°05'0 0.0
2016-May-18 08:33N 29°54' W 090°05'0 0.0
2016-May-18 06:32N 29°54' W 090°05'0 0.0
2016-May-18 05:33N 29°54' W 090°05'0 0.0
2016-May-18 04:17N 29°54' W 090°05'0 0.0
2016-May-18 03:33N 29°54' W 090°05'0 0.0
2016-May-18 02:33N 29°54' W 090°05'0 0.0
2016-May-18 00:10N 29°54' W 090°05'0 0.0
2016-May-17 23:33N 29°54' W 090°05'0 0.0
2016-May-17 22:33N 29°54' W 090°05'0 0.0
2016-May-17 21:33N 29°54' W 090°05'0 0.0
2016-May-17 20:33N 29°54' W 090°05'0 0.0
2016-May-17 19:33N 29°54' W 090°05'0 0.0
2016-May-17 18:33N 29°54' W 090°05'0 0.0
2016-May-17 17:33N 29°54' W 090°05'0 0.0
2016-May-17 16:33N 29°54' W 090°05'0 0.0
2016-May-17 15:33N 29°54' W 090°05'0 0.0
2016-May-17 14:33N 29°54' W 090°05'0 0.0
2016-May-17 13:33N 29°54' W 090°05'0 0.0
2016-May-17 12:33N 29°54' W 090°05'0 0.0
2016-May-17 11:33N 29°54' W 090°05'0 0.0
2016-May-17 10:33N 29°54' W 090°05'5 4.7
2016-May-17 09:33N 29°50' W 090°03'7 6.6
2016-May-17 08:33N 29°55' W 089°58'3 2.7
2016-May-17 07:33N 29°57' W 090°01'7 6.8
2016-May-17 06:33N 29°56' W 090°08'  
2016-May-14 11:32N 30°03' W 090°34'1 0.8
2016-May-14 10:31N 30°03' W 090°33'  

Dump ship's entire track history